GFSNGP_con_3kmhel_000.txt.gz
Helicity
103 81 93 88 91 126 197 200 189 136 158 146 151 154 61 79 96 77 100 77 70 67 100 139 178 298 273 108 52 65 108 148 166 149 140 149 163 189 169 117 101 106 88 53
115 71 80 120 136 145 98 108 106 108 133 125 121 110 83 108 76 49 98 121 125 126 121 226 186 253 111 25 76 102 172 181 180 143 135 144 180 165 107 127 125 107 114 112
128 118 84 63 68 56 70 95 158 166 133 117 146 153 68 51 45 72 130 178 137 87 158 150 137 106 39 102 121 192 236 287 312 289 214 153 132 109 94 87 90 97 106 121
177 135 102 58 137 114 136 83 97 131 126 115 171 100 -6 -36 59 132 173 164 132 96 196 115 83 115 158 207 248 230 211 132 125 117 107 82 75 88 101 105 101 96 96 107
197 189 159 132 43 77 87 92 111 115 143 137 121 30 -17 -67 198 235 204 266 212 148 107 69 97 169 199 183 180 165 104 113 106 103 121 107 92 73 76 78 80 91 89 82
257 189 135 137 111 95 117 157 209 214 180 79 151 149 115 311 313 201 216 178 80 40 62 101 135 162 161 170 166 133 130 107 132 135 116 91 79 71 76 90 99 88 77 69
192 212 154 107 84 127 167 140 162 147 117 179 182 231 337 275 -115 112 106 48 -16 52 86 94 124 150 141 150 197 166 136 137 130 98 79 84 79 86 92 96 86 80 71 59
180 189 71 133 111 94 131 181 138 94 195 253 295 239 119 177 121 63 14 16 65 106 105 98 118 185 233 217 197 138 104 119 90 86 87 87 90 87 90 89 86 68 56 56
260 236 221 244 111 133 131 135 146 172 325 268 137 88 138 119 73 60 65 82 137 127 108 110 150 189 147 108 111 119 116 97 93 84 84 87 98 89 87 90 82 71 61 54
200 199 169 100 88 156 149 159 202 239 107 15 50 136 88 102 65 46 71 116 166 161 139 124 134 115 136 138 145 127 104 103 102 96 87 94 106 107 102 91 95 88 74 58
184 137 130 118 173 112 127 82 119 28 38 27 108 82 70 65 68 58 83 125 186 193 164 137 147 130 118 133 141 127 124 119 117 116 104 108 117 111 113 110 121 108 97 81
200 137 98 105 141 123 160 158 61 35 110 100 99 54 67 88 71 62 79 128 199 192 177 163 169 143 126 138 135 140 134 142 131 113 98 98 110 115 112 118 113 86 70 79
178 123 153 209 212 238 180 86 51 94 92 88 72 99 84 74 79 71 103 159 204 200 191 183 197 138 144 122 128 139 149 149 134 104 95 94 109 123 122 101 81 76 66 56
158 165 209 175 198 194 175 164 131 125 101 88 91 68 66 70 73 91 138 176 190 187 189 230 163 143 109 97 108 132 143 134 126 113 103 96 103 121 134 135 100 80 62 47
198 218 174 127 156 170 154 156 135 96 68 61 60 58 85 72 104 132 142 160 156 165 208 162 147 104 84 90 116 130 121 108 115 105 94 97 114 119 137 133 115 106 85 -44
198 167 203 244 215 140 114 113 89 78 74 57 32 50 106 137 128 123 144 170 177 146 131 105 84 71 61 84 98 93 87 81 99 97 90 98 106 119 129 123 113 104 57 -69
222 193 160 130 107 107 94 94 94 72 75 91 125 145 139 146 149 113 99 140 149 111 86 87 59 40 61 74 81 89 95 86 95 98 99 97 111 127 132 127 119 110 -3 -69
100 70 79 124 123 124 133 120 121 146 155 154 165 162 154 149 144 113 105 141 133 121 106 58 47 49 57 54 68 87 93 89 98 91 85 87 99 122 131 122 112 114 -13 -67
134 135 129 119 111 112 115 137 165 170 168 147 153 148 139 131 150 145 127 144 142 118 65 51 51 50 52 54 56 86 98 103 92 80 85 83 96 108 121 115 102 111 51 -74
133 107 94 70 57 97 125 140 156 146 143 181 150 157 125 115 139 125 145 151 121 82 56 53 42 47 48 60 66 83 91 102 90 85 82 82 92 98 104 106 95 93 71 -73
65 45 53 74 103 119 139 124 126 135 137 167 157 135 124 126 157 156 153 134 95 83 80 52 55 53 59 56 55 70 85 104 94 93 79 81 92 94 98 98 97 97 73 -18
67 93 108 111 119 107 101 115 138 144 148 123 118 135 132 150 139 133 117 122 88 85 82 56 56 55 54 43 52 67 76 90 91 89 81 88 103 104 96 95 88 87 75 38
117 124 116 110 102 98 107 109 112 139 143 135 116 123 147 148 134 117 88 91 89 63 80 57 49 44 50 47 50 63 65 70 80 82 76 77 96 111 112 94 86 77 77 44
127 112 110 113 101 99 87 86 105 81 106 121 120 108 115 131 73 71 87 98 83 80 71 55 50 46 56 65 56 57 61 68 73 85 74 71 79 89 95 96 81 78 66 57
111 113 122 96 87 84 98 98 96 80 83 105 100 88 106 98 80 50 98 110 90 89 92 79 66 60 63 69 62 63 68 65 76 99 94 88 79 77 80 86 82 70 69 68
103 107 114 110 116 114 131 122 96 87 83 81 91 105 86 54 63 72 101 94 78 89 98 99 77 66 56 47 40 43 52 66 83 100 103 96 92 87 90 88 84 79 67 65
94 95 99 102 114 127 109 73 75 93 79 85 84 64 69 61 77 109 132 100 79 94 95 98 77 56 55 49 43 43 41 54 71 91 101 102 104 103 97 99 101 94 80 70

GFSNGP_con_3kmhel_003.txt.gz
Helicity
145 127 131 121 93 106 138 148 158 96 77 89 78 76 108 180 151 106 25 52 92 135 189 198 177 193 125 90 80 108 134 148 157 117 162 156 157 149 145 140 115 99 97 97
163 158 140 96 94 81 30 37 85 56 68 33 70 104 150 136 91 53 94 92 35 11 83 126 206 173 133 97 122 133 149 160 140 110 69 92 106 119 114 88 92 106 113 109
214 170 94 84 98 42 77 86 122 123 93 115 96 135 110 76 84 118 79 70 114 45 16 123 141 105 69 88 116 123 133 113 111 97 103 119 145 113 94 88 85 80 77 84
260 178 179 124 112 120 85 43 79 75 117 143 134 121 99 204 220 158 124 126 24 -95 87 70 50 61 105 121 131 119 111 116 131 118 115 133 110 86 74 69 64 63 76 96
223 204 180 81 37 100 131 77 128 177 139 108 68 70 153 251 207 130 83 -43 -73 46 29 37 77 99 114 120 125 128 150 158 136 122 103 103 78 72 63 62 65 81 86 75
247 210 191 128 125 97 120 141 195 182 133 66 107 194 175 224 110 93 95 52 44 38 69 86 111 129 101 103 143 177 232 174 125 91 91 73 73 66 74 76 83 86 76 72
171 195 153 117 88 123 207 223 210 161 112 120 166 233 167 105 34 144 46 24 32 43 81 108 148 126 131 170 180 121 134 82 83 82 73 77 79 82 85 81 86 82 73 67
208 175 93 151 147 145 181 157 102 86 165 194 171 137 59 -17 67 31 61 65 57 72 100 148 178 139 119 101 93 95 110 98 81 80 88 92 93 91 93 92 89 81 72 59
210 217 130 162 142 148 95 75 101 97 127 169 131 58 43 80 99 98 86 68 56 88 112 168 169 128 116 109 131 115 129 104 96 92 96 107 107 100 103 103 112 101 87 70
199 159 113 112 116 118 116 139 34 102 83 23 65 113 106 101 82 79 73 63 68 80 105 160 171 163 134 136 124 140 131 116 117 112 113 107 122 118 113 116 125 104 94 74
202 86 92 143 120 101 120 110 117 64 77 93 114 102 79 79 80 76 64 59 72 93 128 157 181 170 153 151 139 136 114 122 125 139 127 116 109 104 118 131 129 117 106 85
197 143 171 230 221 148 171 144 150 164 129 82 66 79 89 85 80 68 71 88 112 117 146 168 180 158 160 140 131 105 100 113 133 129 125 114 98 95 115 125 129 108 89 89
180 246 195 159 140 164 180 122 125 114 82 88 79 92 95 97 92 99 114 109 108 110 140 147 144 171 138 128 101 102 99 110 112 113 112 101 90 97 101 97 91 100 92 70
184 205 236 164 183 151 120 133 108 73 78 88 87 106 118 135 117 116 111 93 94 111 122 141 165 123 124 88 80 88 97 93 89 102 99 91 88 95 112 109 83 74 70 59
245 296 295 279 206 120 100 87 84 92 99 101 103 100 131 122 111 110 116 110 92 87 123 151 118 119 84 57 66 67 66 71 79 91 94 89 82 93 114 112 95 93 78 67
277 240 177 117 76 68 90 89 91 82 88 92 94 125 116 131 132 126 106 116 124 98 104 121 117 78 40 45 50 47 59 70 84 86 84 82 80 87 101 105 89 91 85 69
177 136 87 94 82 75 70 77 86 98 123 131 131 146 130 125 129 123 101 120 123 115 110 109 95 42 40 38 31 47 59 70 82 80 73 75 72 74 92 101 93 87 91 59
107 84 82 76 79 84 78 78 99 116 126 128 141 138 135 129 125 114 95 110 109 97 102 100 66 44 52 47 41 44 62 80 83 74 68 63 67 69 77 89 92 82 80 -4
108 104 107 104 94 69 88 112 118 122 118 125 140 133 135 139 130 113 112 113 94 78 77 76 57 43 44 46 43 50 61 70 79 77 70 64 63 70 69 71 77 78 70 -1
133 122 100 67 83 120 112 118 115 113 121 133 144 140 123 105 104 110 109 100 81 79 87 63 54 46 58 53 48 50 55 60 73 77 72 65 66 66 72 69 69 66 68 39
86 68 75 97 103 115 128 114 110 116 105 118 141 126 110 108 113 126 117 79 64 77 84 68 65 59 58 53 44 43 57 62 67 69 69 66 62 67 69 73 66 64 48 50
84 102 111 116 123 107 99 100 100 102 111 120 106 93 95 115 98 114 120 76 51 72 75 73 72 60 51 47 44 47 57 57 57 70 74 71 70 69 68 69 66 60 56 40
118 136 122 115 115 100 103 96 94 105 110 100 93 91 103 113 100 88 71 70 60 75 75 70 73 50 48 53 52 48 45 43 49 54 78 72 70 70 72 67 65 62 55 49
132 126 115 113 117 121 113 99 106 100 99 100 103 108 99 91 74 93 71 52 58 70 67 69 75 63 55 56 52 50 48 54 49 53 75 80 75 76 74 73 72 67 60 53
132 116 114 96 72 92 110 121 109 84 76 82 94 97 108 95 94 76 49 43 71 82 74 81 85 83 66 57 53 46 46 47 46 63 86 87 79 79 77 80 81 77 73 59
102 96 93 82 67 78 123 148 114 113 109 98 91 87 103 52 54 52 53 51 82 76 67 96 101 95 74 55 53 51 53 53 53 61 69 81 77 74 78 82 85 90 90 78
101 108 91 73 58 62 105 132 117 111 108 100 108 87 66 42 54 64 68 86 110 122 95 87 90 85 74 62 60 65 63 60 62 66 67 69 69 67 71 79 88 92 98 106

GFSNGP_con_3kmhel_009.txt.gz
Helicity
60 62 111 123 81 67 79 86 112 41 29 24 78 159 103 85 115 104 69 164 241 174 135 127 104 171 111 130 109 87 117 112 138 126 97 161 162 165 142 126 115 97 80 79
81 87 110 89 49 32 52 61 52 44 27 80 126 101 104 177 131 161 176 152 129 125 126 77 145 109 99 93 88 116 122 141 138 153 195 143 165 140 132 116 93 84 84 85
92 84 83 130 101 108 88 63 75 71 47 99 73 187 168 165 190 212 137 109 112 130 116 118 125 95 89 100 96 101 122 143 129 253 149 174 155 132 117 103 87 76 74 85
114 90 93 211 79 28 49 33 43 45 110 206 188 148 142 221 188 138 134 101 123 136 134 107 84 77 89 81 83 96 136 149 190 205 151 135 131 97 105 83 83 80 94 114
112 119 93 57 180 131 81 28 72 176 177 140 110 102 139 165 157 122 72 105 152 121 102 94 85 64 92 109 102 109 100 144 190 171 104 153 115 110 79 77 75 102 131 117
164 168 181 193 163 118 52 80 260 166 179 98 92 142 151 159 107 102 91 102 101 103 66 76 82 87 110 85 100 146 76 236 185 141 150 153 117 83 74 62 83 164 150 116
119 188 141 109 134 81 145 173 167 157 95 102 143 157 129 59 25 71 95 71 80 71 120 115 126 102 99 67 89 139 126 174 157 153 171 151 92 63 64 71 118 176 133 119
158 200 136 155 172 217 145 122 163 110 118 138 129 84 25 65 75 69 90 108 96 131 145 142 116 110 111 59 78 131 64 198 206 125 165 110 69 56 85 87 124 137 133 127
205 186 110 114 120 81 182 160 141 169 142 113 98 73 66 60 94 103 107 114 127 153 148 121 102 84 71 127 114 236 195 194 146 139 87 66 87 79 93 93 130 131 116 136
174 131 71 95 82 257 216 141 134 121 -33 60 47 73 80 120 114 109 116 120 146 142 130 96 79 82 82 195 125 89 73 113 132 96 92 72 81 91 103 119 112 110 136 123
148 75 85 91 263 225 131 102 79 4 57 57 72 103 118 114 106 130 121 131 124 90 81 94 90 112 137 153 158 108 81 78 72 52 62 78 71 120 100 138 159 135 129 118
153 153 174 208 233 105 96 105 101 120 109 114 111 114 107 121 130 111 127 97 102 91 107 120 120 138 108 137 103 69 55 64 52 61 67 78 78 84 139 125 143 155 162 131
141 202 204 243 108 72 131 137 127 140 117 118 95 97 118 122 99 124 91 102 118 111 110 116 104 141 115 122 80 62 53 42 43 52 76 87 91 88 74 116 121 167 166 110
193 210 198 131 111 111 81 94 111 104 95 98 114 112 111 107 107 95 99 115 116 112 104 93 109 149 131 92 76 57 39 45 47 53 77 90 89 87 76 79 74 98 162 155
220 230 210 65 45 68 75 124 130 104 106 96 104 108 117 113 105 91 90 108 142 114 88 95 127 120 112 96 58 47 58 44 48 59 72 75 77 77 71 73 72 81 85 112
146 76 45 60 82 116 137 116 98 80 88 109 104 123 113 99 90 93 86 101 156 113 92 92 89 90 94 67 45 41 68 79 50 57 66 72 80 79 77 73 68 77 74 90
126 134 129 116 128 121 105 86 81 101 99 100 110 124 103 102 98 92 100 103 144 142 129 101 86 78 102 52 52 44 67 57 69 55 66 78 74 74 81 77 66 68 79 124
161 176 133 124 103 90 85 96 98 100 103 109 124 116 116 119 115 106 92 102 135 127 132 88 101 89 87 52 75 59 56 56 60 65 74 75 76 75 85 79 68 67 71 100
157 129 115 99 97 102 91 91 100 128 126 132 123 115 121 132 104 99 97 118 106 112 97 112 130 103 75 79 73 48 54 50 53 60 73 70 66 76 85 90 84 72 71 67
129 125 113 96 110 107 106 106 128 120 110 110 135 124 119 112 116 103 96 106 101 125 124 129 144 96 75 63 81 40 50 46 48 57 66 63 62 74 84 90 90 75 74 78
121 107 101 102 103 117 132 134 143 130 109 123 126 124 114 101 107 98 101 99 69 116 120 138 135 83 73 73 88 60 54 46 49 51 47 54 60 67 77 84 88 90 78 82
101 96 108 118 120 112 123 126 122 136 116 101 114 121 97 108 115 116 125 115 95 120 142 124 107 79 68 115 71 99 60 42 44 44 41 46 61 67 72 78 83 88 87 82
90 94 107 126 129 105 124 126 125 113 109 98 102 93 98 110 113 110 97 64 80 88 108 92 101 141 128 107 75 88 79 57 49 47 49 56 64 66 71 73 78 78 75 76
85 86 93 113 133 131 112 82 97 112 114 85 96 91 113 101 98 101 115 77 63 82 83 76 131 131 136 120 85 73 77 69 59 52 53 60 79 76 75 72 76 73 72 83
104 102 105 121 111 102 78 75 91 69 80 61 77 96 93 91 111 95 118 85 73 84 90 86 106 123 139 128 102 107 75 68 60 58 55 52 56 70 75 74 70 74 77 76
85 100 101 103 105 95 101 86 68 81 92 79 83 90 85 88 92 92 105 94 82 88 104 104 118 119 133 131 115 119 93 72 76 72 67 68 64 65 69 72 69 70 77 88
83 89 86 80 79 88 95 97 106 88 89 88 86 81 72 86 85 84 83 103 96 97 110 125 122 138 155 134 136 146 102 91 89 81 75 76 75 71 72 69 68 70 73 81

GFSNGP_con_3kmhel_012.txt.gz
Helicity
34 39 71 81 91 92 85 86 122 77 40 33 100 122 258 253 217 167 172 241 206 141 157 160 136 116 127 119 131 162 244 80 162 248 229 387 252 209 211 182 161 162 130 108
40 76 81 69 46 54 65 41 68 67 9 58 140 248 224 159 151 192 230 166 104 134 143 161 120 92 104 100 111 126 246 99 195 206 165 369 187 168 197 190 198 146 133 108
73 65 39 78 106 149 129 101 91 94 49 105 227 246 199 147 211 228 145 111 108 110 87 148 148 122 106 85 98 134 69 196 301 349 246 227 141 195 200 253 182 151 122 139
99 79 98 137 85 64 111 103 41 44 100 178 256 183 127 233 236 171 108 94 54 80 139 116 119 80 116 146 160 93 83 144 164 119 177 71 209 195 267 243 160 124 129 188
116 120 72 14 166 168 149 48 64 178 263 232 150 85 141 233 188 132 75 13 86 87 116 107 105 115 176 184 119 102 61 94 134 116 282 60 178 241 276 170 128 156 163 183
157 135 92 119 243 144 89 119 238 186 147 115 72 131 170 173 125 68 57 92 86 114 90 120 160 204 195 169 144 89 150 65 128 185 145 227 251 223 128 130 151 168 171 115
124 120 54 52 158 109 172 242 164 151 146 124 152 201 169 81 87 86 75 107 87 104 175 227 198 180 165 141 129 156 136 104 90 103 49 81 153 168 105 165 155 158 130 110
125 110 70 170 195 217 227 161 218 218 150 165 148 124 106 126 82 92 131 128 147 195 203 220 146 115 143 179 204 199 116 80 88 91 43 107 143 123 135 152 182 156 112 135
160 130 80 154 221 196 211 209 269 86 98 116 81 91 138 100 106 145 150 175 182 183 191 104 101 116 199 238 224 191 141 116 99 73 77 120 109 98 124 181 169 122 121 139
219 172 110 120 173 290 307 256 198 181 128 30 96 154 85 116 149 175 195 161 187 159 117 145 132 169 213 218 197 166 137 97 83 78 80 69 87 114 152 147 123 122 130 143
150 122 134 295 359 357 258 239 89 60 126 134 101 105 151 163 156 168 157 177 149 125 160 164 139 175 192 168 148 129 100 81 83 65 63 69 79 116 129 125 123 118 132 144
166 136 261 327 321 269 232 213 100 183 112 103 131 142 143 171 166 156 179 151 141 140 152 153 171 164 136 175 135 123 92 87 66 58 56 61 82 104 128 110 98 113 128 123
181 314 371 270 255 185 205 233 176 120 68 113 125 173 170 162 142 148 141 125 126 129 170 181 135 124 132 207 137 117 112 71 65 54 66 77 92 100 87 94 87 120 117 96
356 289 260 206 183 178 161 119 59 96 122 164 162 149 141 148 141 132 114 117 121 128 175 129 96 120 175 162 147 119 96 73 80 67 63 65 75 82 87 86 86 91 116 114
273 223 186 124 133 87 50 112 139 115 148 124 151 141 145 131 122 108 114 116 132 132 140 139 111 92 98 163 106 90 84 132 113 63 71 74 77 81 84 83 86 84 94 122
180 116 125 114 156 166 153 133 137 132 123 135 121 129 127 121 109 106 99 137 138 107 101 137 129 103 91 91 82 69 82 150 89 68 71 70 80 79 84 93 93 91 91 122
136 120 202 194 160 171 155 148 131 138 103 96 109 135 123 114 104 97 119 120 120 116 118 153 125 92 88 88 79 72 90 123 98 83 73 79 81 78 84 99 106 99 95 134
170 218 242 184 168 147 138 151 127 100 101 118 128 136 141 132 114 105 104 119 112 115 124 152 150 122 97 90 86 109 116 85 75 69 74 80 81 73 81 96 112 113 108 121
237 183 172 147 136 140 117 102 95 128 107 120 140 141 147 137 113 99 96 105 113 103 97 131 140 153 108 101 115 105 89 79 67 62 63 83 73 69 79 86 99 122 113 107
171 174 154 115 122 110 89 94 113 120 114 135 146 137 120 117 104 89 101 117 106 131 123 123 154 161 126 96 122 96 79 82 64 58 59 71 71 66 76 86 92 114 116 118
147 115 100 103 91 89 101 107 125 120 118 142 144 121 105 93 85 92 103 108 78 105 112 109 179 153 111 100 123 111 88 90 76 61 59 56 56 69 82 83 83 88 110 109
117 116 94 81 94 98 107 114 118 139 132 128 124 101 95 95 89 98 101 114 110 107 94 86 136 109 86 93 125 136 153 125 90 63 56 51 54 61 77 85 83 83 88 104
110 81 88 92 102 103 115 129 130 127 108 112 91 83 86 109 113 104 90 85 64 104 68 78 99 96 107 138 131 119 117 116 104 81 64 58 64 73 87 93 91 90 86 89
85 85 96 108 124 130 111 97 110 117 131 113 103 87 102 119 131 116 98 92 64 105 92 83 80 109 146 155 136 135 115 105 106 98 80 65 67 74 100 99 103 99 95 83
88 92 99 110 108 115 100 92 112 120 102 116 122 100 89 139 143 106 100 100 75 108 95 94 87 105 153 173 148 136 126 130 117 110 89 78 69 55 56 77 102 104 94 96
81 87 97 109 114 106 103 101 117 115 138 135 123 99 100 121 112 121 118 101 88 97 109 101 109 105 144 169 165 160 147 142 143 122 110 101 88 80 70 66 73 89 94 91
97 103 112 115 108 117 124 119 124 170 169 136 115 86 90 91 85 88 94 107 107 102 111 109 113 120 147 162 161 170 159 179 147 128 140 125 105 94 90 86 82 81 83 85

GFSNGP_con_3kmhel_015.txt.gz
Helicity
37 31 43 54 51 49 99 120 215 100 151 210 125 230 262 251 264 267 184 123 119 116 91 98 124 125 114 119 129 130 157 166 199 163 228 298 304 482 233 45 159 193 179 161
66 90 72 59 38 31 62 105 98 159 155 124 202 240 270 249 244 183 126 56 116 95 99 90 108 123 147 232 231 165 141 112 140 228 192 209 193 155 25 141 191 159 151 186
69 76 84 114 91 82 96 113 154 179 166 212 317 284 188 176 154 80 81 106 87 98 98 124 130 221 315 235 184 162 146 131 125 68 33 17 68 75 58 225 213 168 158 224
91 111 127 99 102 157 181 203 172 297 390 406 303 131 114 108 109 117 108 123 115 125 142 155 208 255 212 170 146 127 148 130 74 17 1 49 125 45 203 267 179 199 194 138
134 121 96 137 136 133 147 123 181 311 321 279 172 84 125 117 81 112 141 108 124 137 142 183 210 181 147 132 122 172 198 164 114 79 76 115 108 139 194 159 164 192 136 130
165 154 110 132 198 125 138 178 208 215 209 166 137 177 115 140 160 119 95 137 150 158 178 210 183 141 139 146 186 231 205 158 109 61 95 82 84 41 100 157 197 157 133 84
174 159 91 85 157 125 202 140 260 249 211 161 142 118 80 114 161 133 146 171 197 204 200 178 118 130 168 205 226 205 168 120 90 89 92 85 98 102 121 179 176 127 92 58
179 165 103 70 202 221 166 255 263 293 224 152 154 88 121 155 138 148 184 204 205 218 181 141 142 172 205 227 212 186 136 131 101 103 98 102 97 100 136 142 125 93 69 39
187 143 102 111 149 229 284 240 300 266 181 213 179 156 186 182 151 171 187 179 188 189 151 147 170 180 207 185 161 112 98 109 104 99 95 97 91 87 89 100 91 65 55 66
261 163 133 152 288 321 376 373 311 230 197 215 183 185 220 162 170 178 180 193 183 159 157 170 152 170 162 148 142 115 108 95 92 89 75 57 50 62 80 75 66 56 69 82
221 218 217 302 335 392 400 353 256 184 182 266 250 227 178 191 184 164 159 137 140 142 147 138 154 144 120 156 172 160 101 89 87 82 64 56 73 76 59 43 50 69 84 94
190 157 209 290 343 324 314 259 207 186 304 261 224 207 198 163 159 154 135 124 130 122 112 144 153 122 131 168 176 150 101 85 79 84 62 77 81 81 70 58 67 89 94 109
176 232 268 304 265 220 221 164 214 275 225 247 216 189 163 155 154 142 123 126 126 106 107 137 154 129 156 176 141 123 96 76 77 78 85 69 51 36 40 59 54 67 84 83
293 381 341 257 225 188 190 203 212 230 242 206 184 164 167 147 144 121 116 120 101 118 108 115 123 175 156 109 126 130 91 77 116 114 69 65 59 57 68 63 64 74 66 111
355 343 260 226 178 188 207 270 276 235 201 178 168 151 146 140 125 112 123 105 112 106 115 106 91 115 128 103 105 91 77 83 133 121 63 61 62 64 62 66 75 82 96 137
347 319 252 167 143 254 317 281 234 199 172 151 144 123 123 124 116 123 117 97 108 91 103 129 114 119 110 100 81 79 61 102 117 88 63 62 67 71 62 64 75 87 90 111
301 238 167 275 331 291 248 194 172 148 127 127 107 106 112 113 125 132 122 103 101 98 103 120 125 109 115 114 83 89 105 120 109 93 83 78 76 74 63 63 85 94 99 126
277 323 331 315 258 200 174 138 113 113 122 107 104 110 121 130 138 127 111 84 72 82 90 111 126 119 129 114 93 113 117 99 91 86 82 71 77 88 63 68 83 102 106 120
327 354 318 235 174 156 119 88 95 105 97 94 115 112 121 122 118 113 97 82 69 73 88 107 108 90 124 124 97 123 116 84 79 79 69 67 75 80 67 80 80 95 110 110
288 220 204 149 112 83 62 78 91 89 85 111 122 130 123 110 85 100 85 85 88 112 108 102 89 76 116 138 99 119 108 82 76 76 70 65 79 77 74 72 80 85 95 115
154 148 135 71 67 67 83 89 93 93 97 122 134 130 121 109 90 86 95 106 104 111 91 65 111 70 120 138 101 114 113 102 91 90 84 78 71 72 70 86 85 77 78 95
122 100 68 60 75 78 75 75 89 113 120 116 125 112 100 92 99 127 127 125 111 87 69 62 109 43 105 118 101 122 132 127 132 127 101 82 76 70 69 80 82 80 78 74
79 79 72 80 79 73 83 86 100 126 115 114 131 110 100 119 142 132 121 116 113 84 81 76 104 66 76 102 112 143 138 136 138 146 135 110 88 85 75 88 99 99 89 85
88 93 85 80 86 91 80 94 113 116 137 143 118 121 121 124 128 142 153 133 119 90 82 78 96 91 61 96 139 152 166 173 128 123 134 114 112 102 96 95 99 109 110 99
78 83 87 93 95 124 124 123 123 121 121 142 148 157 129 122 140 100 110 102 100 107 100 74 93 103 110 100 128 163 167 186 168 155 145 145 130 123 115 90 81 86 114 111
84 92 101 104 132 147 154 153 166 161 159 176 179 140 117 89 101 114 108 94 96 93 101 101 97 108 125 123 112 139 169 177 177 176 177 164 137 140 125 111 92 91 96 101
78 93 113 130 135 127 116 130 122 99 109 127 117 96 78 89 104 113 95 91 82 68 74 92 106 98 127 133 121 140 169 175 184 197 200 192 163 143 136 118 112 112 109 102

GFSNGP_con_3kmhel_018.txt.gz
Helicity
79 76 72 61 64 67 113 114 160 104 175 158 302 342 323 323 311 292 282 242 181 76 69 96 120 172 198 184 182 189 178 147 123 57 100 76 58 148 136 105 106 71 108 147
73 92 85 52 62 76 71 100 131 188 270 359 392 353 339 278 275 257 204 132 85 36 100 152 179 188 177 175 164 166 165 138 60 62 77 43 43 92 88 118 185 134 178 159
72 109 94 96 91 82 106 151 131 145 223 359 354 292 221 223 203 138 93 26 16 108 149 174 171 166 178 140 124 158 161 67 83 109 65 30 72 108 138 103 71 223 176 177
99 134 124 117 87 82 157 167 194 258 290 273 238 215 188 135 106 51 -19 27 125 190 170 156 159 163 140 110 125 166 109 122 131 92 40 31 81 115 134 74 147 113 129 116
127 122 114 145 169 138 147 114 149 214 263 275 225 211 147 85 62 30 38 138 182 142 144 159 148 114 110 135 173 168 163 131 96 70 50 54 115 91 79 91 139 136 122 142
156 145 105 110 150 162 186 142 133 181 196 207 246 252 145 89 116 156 181 194 172 151 145 155 126 125 149 178 189 169 128 106 95 68 78 95 100 114 120 114 135 149 142 127
202 167 129 83 207 167 222 90 136 177 175 215 219 160 121 177 213 192 207 185 158 164 156 129 118 153 210 200 189 145 114 102 90 87 101 122 110 129 122 137 133 119 110 74
213 209 131 118 215 235 139 172 189 212 212 245 222 156 187 224 274 266 209 189 190 174 144 136 175 194 188 182 138 119 94 88 111 103 119 118 129 109 100 98 100 83 77 56
154 112 141 99 148 176 210 225 255 289 260 244 224 254 266 311 301 240 200 183 153 153 161 169 169 166 162 135 120 109 102 116 113 112 119 109 95 90 89 81 70 57 60 64
204 136 126 140 212 256 289 275 319 324 312 273 240 193 266 271 240 190 173 156 138 151 149 145 142 143 128 113 112 160 142 123 100 103 95 95 98 94 76 51 45 50 62 69
208 206 246 272 246 299 376 363 321 291 248 138 250 303 260 216 186 171 155 138 128 132 133 127 122 117 108 92 119 177 153 119 92 96 85 94 111 86 51 29 47 63 69 82
202 139 168 175 218 278 290 226 237 241 304 319 299 242 192 184 160 145 136 126 137 131 130 132 121 99 121 154 163 155 124 119 96 90 75 87 89 73 43 39 51 57 85 106
142 121 164 198 236 227 224 240 255 322 301 280 229 185 161 132 129 141 148 145 141 124 133 129 104 93 105 149 143 113 129 123 98 95 97 84 76 60 53 70 65 66 60 88
228 322 318 292 217 227 285 301 315 353 283 221 172 147 120 136 155 153 139 132 128 127 132 117 109 100 107 153 124 106 124 99 90 109 116 91 63 64 58 58 49 52 53 76
241 264 199 254 321 387 425 370 296 259 202 175 137 130 146 152 144 125 128 131 126 131 122 104 93 94 111 129 110 104 102 87 70 99 94 72 57 69 63 56 53 56 67 81
348 349 332 366 417 438 281 214 221 197 156 129 138 138 138 143 127 124 128 132 143 131 102 91 95 114 102 126 115 106 96 76 88 94 87 69 71 78 69 65 50 62 75 89
404 423 478 513 395 209 162 193 164 129 121 127 119 133 133 123 121 116 128 123 122 109 91 88 105 100 94 108 118 119 106 112 96 98 90 80 86 84 74 72 56 59 72 90
377 400 385 240 129 110 182 143 118 117 104 104 140 130 114 123 121 130 126 103 104 94 84 93 106 109 83 101 114 124 138 126 111 108 95 81 81 72 79 72 55 61 63 76
524 370 268 228 212 150 125 105 100 75 90 116 121 98 116 122 138 135 108 90 76 80 105 107 94 86 91 94 108 145 135 126 104 83 74 76 64 57 74 69 56 62 70 66
150 197 130 151 165 154 119 54 53 79 83 101 110 123 125 134 131 112 102 113 104 129 124 102 95 53 81 88 87 132 132 117 99 78 64 62 71 58 63 67 66 70 68 63
106 106 112 63 41 61 47 56 93 79 69 102 117 118 132 132 127 106 104 126 128 115 111 97 107 77 86 78 99 125 118 105 103 95 90 87 85 76 65 70 71 90 74 70
96 86 65 55 58 67 77 74 76 88 99 95 107 114 144 129 122 124 128 128 131 102 119 128 114 77 81 89 90 126 113 102 106 105 105 119 127 108 91 82 86 88 90 86
80 79 79 83 76 68 75 87 87 96 102 116 127 132 176 187 164 132 109 86 131 126 121 128 103 75 58 95 84 109 124 129 114 129 127 132 143 150 139 116 108 108 113 115
88 89 79 68 80 95 98 109 124 138 150 147 146 164 165 172 167 137 129 109 97 98 99 100 83 68 48 76 94 95 103 128 145 156 174 160 142 141 131 128 134 123 113 116
53 63 75 88 88 99 103 116 118 120 130 122 120 135 146 165 169 126 107 102 97 85 82 66 67 66 75 75 87 96 113 119 134 142 158 172 178 170 146 125 137 139 120 114
91 90 88 82 96 111 118 121 126 130 135 134 124 109 137 142 131 109 104 92 95 80 75 60 54 57 71 82 64 73 96 131 141 145 159 160 175 180 177 158 171 140 126 121
91 97 106 105 106 113 121 130 151 149 157 152 164 128 129 134 123 110 92 104 86 70 66 66 57 54 58 74 101 120 111 104 120 135 136 166 184 189 171 149 154 165 149 141

GFSNGP_con_3kmhel_024.txt.gz
Helicity
76 83 76 63 64 91 101 123 129 84 104 75 132 166 218 315 368 392 343 278 241 222 195 187 122 123 168 160 107 99 100 107 102 106 117 116 115 108 110 130 127 127 134 140
71 106 113 65 52 88 110 144 120 117 60 126 137 245 285 343 399 331 262 230 214 213 196 89 110 156 154 115 100 106 93 91 117 149 147 138 128 124 122 121 123 125 142 158
59 112 116 47 85 161 169 189 188 167 121 144 136 165 249 318 300 243 230 217 202 175 108 126 157 157 126 97 101 93 96 126 162 164 139 124 126 124 123 102 103 122 153 168
93 140 135 110 121 116 155 136 168 187 148 142 146 198 219 237 235 212 202 182 158 126 141 160 141 132 105 109 101 106 126 137 155 145 133 122 124 125 116 115 120 125 153 141
149 138 145 129 123 142 193 117 192 195 174 193 197 254 183 180 190 181 182 156 142 161 161 170 146 115 116 114 127 135 131 138 132 135 132 132 127 112 101 114 123 146 147 134
166 176 148 82 111 138 201 190 173 200 174 175 222 236 145 230 209 195 212 211 176 196 207 180 138 121 126 126 131 119 128 131 133 142 141 134 124 109 112 128 148 164 151 122
204 188 162 91 152 217 239 94 79 93 111 175 182 186 167 173 251 252 265 260 228 223 213 160 137 131 122 127 121 131 147 144 146 160 151 133 125 121 131 157 167 165 140 106
175 210 156 134 234 166 83 85 67 47 107 141 179 239 255 268 301 325 309 224 240 224 181 150 136 133 121 134 151 163 159 144 153 174 165 141 139 142 159 159 157 139 116 92
148 139 113 -2 62 80 135 139 117 132 156 163 308 304 306 325 376 262 173 244 210 163 142 135 135 143 149 159 166 165 156 139 144 179 165 139 146 146 154 147 145 112 96 87
180 100 94 86 59 85 129 139 159 173 234 290 342 376 401 401 287 140 227 179 134 131 115 118 143 147 153 148 155 161 159 135 129 162 155 143 146 143 138 141 128 105 92 86
147 88 105 88 118 97 157 194 198 210 259 319 402 430 381 371 275 296 178 116 116 105 117 131 128 132 144 154 161 158 161 139 129 165 158 154 153 136 121 115 120 111 98 99
155 131 155 109 99 96 121 137 177 275 355 397 412 430 466 313 217 173 110 92 102 138 145 121 126 137 142 156 166 149 156 154 136 145 171 162 156 135 102 94 75 72 59 113
139 113 88 106 107 107 153 193 240 298 343 416 438 479 278 233 190 95 91 110 132 122 104 120 130 130 128 136 152 142 137 138 129 134 155 154 150 155 131 92 78 75 66 56
100 136 121 124 111 130 196 291 379 433 498 551 545 431 236 150 75 91 94 108 103 101 118 117 114 115 116 128 133 120 127 120 126 130 153 147 135 156 149 132 112 90 77 78
78 87 115 119 179 258 296 378 518 644 710 543 401 244 124 76 67 79 93 94 105 106 102 95 94 99 84 108 116 116 122 135 142 144 152 143 131 148 143 134 133 105 79 76
109 128 179 256 325 403 510 612 723 672 510 349 156 86 50 49 75 82 88 104 107 89 80 84 78 50 62 85 102 119 103 109 115 147 161 159 149 147 136 126 123 113 88 83
135 186 285 346 392 487 470 531 501 370 148 140 116 68 64 76 78 72 82 95 91 69 83 94 79 65 76 99 106 123 114 125 123 135 176 184 156 146 136 127 110 108 90 84
292 395 382 384 397 380 363 283 201 157 205 136 57 75 61 64 60 66 76 76 91 86 84 98 87 72 84 103 114 121 114 123 128 116 143 181 154 132 131 120 111 109 88 75
292 327 317 313 265 146 123 54 62 49 15 7 35 38 60 61 72 69 87 86 83 117 130 109 91 98 89 100 117 128 114 106 111 140 156 154 126 124 121 109 106 115 113 103
168 91 23 -7 15 29 27 12 -4 11 39 58 71 73 70 66 61 62 98 118 143 168 161 129 117 116 121 122 127 125 108 101 101 137 142 149 143 125 120 109 109 112 123 126
50 70 78 58 27 18 31 37 47 57 69 80 74 58 60 46 59 93 125 145 160 163 170 140 122 117 127 125 116 110 101 92 98 123 130 145 154 149 140 134 137 140 129 130
36 31 15 19 49 52 49 43 41 40 43 52 48 48 58 68 91 120 160 186 189 191 184 154 128 103 106 97 93 86 86 78 84 119 134 136 146 163 166 167 173 179 173 152
30 49 51 46 44 48 59 60 61 49 48 51 53 64 93 120 150 159 143 142 148 143 162 138 104 76 82 79 79 83 79 77 78 77 103 128 144 155 151 138 142 161 190 204
41 58 72 81 81 89 99 89 80 78 69 75 85 101 126 138 137 156 158 135 122 162 176 133 79 57 58 78 88 88 78 70 74 71 79 92 123 140 138 147 137 136 159 159
105 119 119 124 115 97 90 78 58 50 65 73 86 118 134 158 176 140 129 132 133 158 156 119 97 101 86 94 97 77 66 61 56 48 54 82 99 128 149 155 144 137 132 142
143 128 120 122 112 97 85 77 73 78 92 102 120 125 121 127 146 149 135 121 121 112 144 181 159 97 66 61 69 67 64 64 58 55 53 36 49 78 104 150 168 154 148 146
123 118 102 94 89 83 89 93 98 107 112 116 126 115 114 116 118 123 123 150 133 153 231 189 132 93 70 61 61 63 61 61 62 59 51 45 44 45 58 125 158 159 157 197

GFSNGP_con_3kmhel_027.txt.gz
Helicity
72 75 63 55 53 90 102 135 124 98 114 90 75 87 117 178 265 352 360 345 300 277 253 204 168 167 112 136 173 134 116 108 105 118 141 128 125 118 115 111 126 151 164 175
75 89 97 48 46 85 94 119 103 150 89 93 136 147 170 183 251 302 330 301 270 240 208 174 127 114 140 165 145 125 105 92 116 140 135 136 130 123 110 114 113 120 132 125
70 106 107 32 55 150 193 195 181 173 163 188 143 102 98 182 227 280 301 273 230 198 163 132 154 157 149 152 145 115 104 113 126 135 144 142 123 114 110 129 134 142 128 133
94 119 117 96 117 121 99 122 172 200 205 132 134 143 102 109 167 245 251 225 197 176 191 187 193 179 159 146 113 109 119 127 136 150 142 127 117 115 126 127 127 121 130 141
102 107 110 104 108 110 128 112 117 156 163 193 177 162 111 88 137 176 190 179 181 200 198 199 192 167 134 109 109 117 121 133 137 143 138 128 123 120 119 124 127 128 133 141
131 116 87 92 102 108 116 127 92 106 193 174 178 207 81 83 153 168 200 232 256 262 285 238 173 132 112 104 117 122 145 133 134 143 150 147 127 123 127 127 128 145 152 144
171 140 111 64 115 111 161 102 85 51 73 133 120 98 126 118 181 245 300 306 331 316 261 191 142 107 95 103 104 146 143 131 137 147 160 161 147 141 131 140 155 155 154 134
139 155 102 75 108 111 89 66 76 78 105 111 106 166 178 178 258 335 403 407 406 257 226 154 118 106 93 94 128 140 126 129 138 139 156 155 142 138 136 148 145 145 140 115
100 109 95 30 64 84 116 107 115 143 138 123 171 225 255 306 378 404 429 352 306 234 181 117 104 106 96 109 130 120 118 128 150 144 137 142 132 130 132 136 134 134 122 104
140 78 65 58 62 93 127 151 145 128 128 159 194 276 365 430 472 507 423 169 317 342 139 108 100 94 105 113 119 119 127 148 164 147 123 123 135 140 129 125 126 121 106 97
110 66 90 72 87 64 79 93 106 136 156 161 228 319 419 483 487 449 235 320 323 162 100 73 79 87 106 112 123 137 147 136 128 130 113 107 113 128 131 122 117 95 86 97
122 103 98 84 67 65 76 94 102 136 190 220 272 396 492 530 414 286 351 310 116 77 64 72 80 83 94 112 139 146 124 112 111 111 106 100 106 112 122 109 106 92 70 88
103 91 79 78 73 85 100 117 152 204 251 354 411 534 555 502 390 422 310 109 66 55 66 64 60 65 79 108 119 104 109 106 107 107 100 94 111 124 108 106 125 93 81 64
84 89 95 140 124 153 190 257 344 403 474 572 643 624 499 349 286 210 103 64 61 60 46 43 52 64 74 87 91 87 90 96 96 102 99 103 106 114 116 96 107 112 104 94
140 111 135 160 184 205 222 293 490 572 619 661 550 429 434 390 160 56 46 41 45 44 42 56 66 68 81 79 73 66 85 100 102 100 110 96 111 128 111 102 125 110 97 103
107 168 203 219 217 234 311 434 481 429 395 426 452 367 155 27 34 30 33 47 59 50 70 86 82 68 69 66 70 82 88 90 86 104 114 100 98 131 127 118 111 100 100 94
80 128 180 224 272 300 320 308 371 390 358 214 52 8 31 9 10 14 18 52 65 69 87 93 76 73 72 74 79 76 82 90 78 85 112 92 91 100 127 119 96 79 78 90
192 237 255 257 237 211 190 164 129 67 17 -22 -34 -24 -9 13 29 40 56 69 77 74 67 102 119 110 112 100 98 100 105 109 86 79 90 96 95 87 106 119 101 85 77 80
70 82 84 89 75 41 10 -21 -42 -48 -34 6 32 40 40 43 49 56 64 68 72 68 64 164 185 167 133 104 107 126 116 114 97 82 78 71 77 79 99 116 102 102 92 87
90 71 53 35 8 5 4 14 25 38 40 40 43 45 50 54 57 61 74 77 76 128 163 181 189 185 148 116 102 113 106 103 87 77 70 69 65 70 82 109 113 104 100 103
90 63 47 40 40 45 49 44 52 66 66 70 67 64 64 56 55 60 75 87 100 134 138 146 171 180 159 133 111 99 98 97 86 81 67 63 58 65 74 94 120 131 124 124
38 43 48 51 63 68 80 82 83 78 76 72 73 72 76 75 82 99 129 124 131 148 135 131 163 163 157 125 95 73 81 88 91 90 73 65 54 51 54 66 83 95 103 107
70 68 73 76 75 68 74 87 80 70 76 87 89 94 103 108 123 129 115 128 139 133 136 144 150 147 125 109 81 63 65 78 84 73 66 61 57 66 69 76 88 99 109 110
80 97 103 90 81 97 110 100 82 77 72 79 95 111 119 127 130 130 135 134 105 120 127 115 112 124 135 111 93 85 83 75 81 65 54 44 38 43 86 85 80 83 112 116
121 122 123 119 117 97 93 80 68 75 90 104 109 108 120 122 140 134 136 140 118 124 130 105 121 201 184 135 102 89 78 73 76 73 67 63 59 48 40 37 62 64 84 117
131 117 110 117 102 86 75 75 84 97 110 111 110 102 102 115 125 133 135 127 133 129 161 154 181 177 166 127 107 95 84 77 78 81 81 70 59 58 54 41 25 26 66 106
123 116 99 88 84 81 91 100 107 111 106 107 118 117 117 116 113 112 110 107 104 91 144 182 177 175 160 126 130 118 99 83 79 76 72 63 61 60 74 89 92 77 72 87

GFSNGP_con_3kmhel_030.txt.gz
Helicity
43 43 40 50 37 32 45 39 72 38 42 37 88 101 90 104 125 162 208 242 251 263 295 295 265 280 231 203 140 167 162 139 121 109 104 122 128 114 113 109 108 102 124 132
22 45 61 47 36 28 34 35 51 36 33 30 74 116 118 123 132 140 178 208 260 274 284 258 253 256 251 127 178 175 144 112 111 109 115 121 121 111 112 107 107 118 136 138
35 74 67 28 14 63 88 106 97 91 60 122 105 115 119 108 97 108 126 175 244 272 245 218 263 227 154 191 206 162 111 110 112 126 121 119 114 111 105 110 115 138 127 129
58 53 59 90 86 89 50 34 51 49 77 99 141 146 117 83 95 85 92 169 214 231 234 252 256 191 211 203 174 115 105 105 124 124 114 114 116 120 109 114 125 131 131 136
77 67 79 43 87 83 75 83 96 63 66 127 127 131 86 94 59 51 89 150 191 238 239 281 294 229 228 226 117 95 95 101 109 119 111 110 119 133 119 133 121 122 145 130
104 69 46 107 107 84 65 70 160 124 92 92 95 137 134 73 33 80 129 183 267 324 297 296 273 357 229 133 119 95 102 104 110 107 104 109 128 133 145 126 123 131 143 135
115 90 81 92 91 100 94 176 92 48 64 62 91 113 130 93 105 113 176 255 320 339 386 513 490 168 109 139 105 85 90 94 88 91 106 111 129 138 128 113 138 144 151 139
119 119 82 87 64 89 138 95 99 95 98 96 132 174 155 172 202 230 307 409 404 561 600 337 97 130 172 196 114 83 79 74 81 101 128 134 127 127 122 116 125 131 150 118
83 115 112 39 77 104 112 106 95 102 126 135 148 149 169 217 272 346 392 517 632 516 377 371 151 129 140 104 82 71 69 80 99 110 110 106 117 117 119 118 124 117 116 92
99 70 48 43 62 69 70 66 76 81 92 111 115 167 205 269 349 432 523 611 460 328 425 273 160 114 74 65 61 61 65 79 90 98 113 114 126 121 106 118 120 118 105 84
74 51 82 73 81 77 87 90 94 96 114 120 130 164 214 293 385 448 511 474 439 412 447 204 83 60 56 61 66 65 76 85 89 109 105 110 110 98 103 103 115 115 103 85
117 132 91 87 97 90 86 105 116 121 147 164 177 232 276 365 473 557 576 500 392 378 177 88 63 44 53 62 65 67 76 82 106 111 116 106 91 98 107 95 135 116 88 95
110 80 73 89 135 144 151 150 159 193 233 282 340 380 456 597 628 684 503 334 271 131 60 46 37 47 50 62 67 62 69 84 100 116 103 93 99 98 94 99 116 116 106 95
159 124 117 188 159 167 178 215 280 333 380 445 527 593 600 616 538 425 191 58 47 46 30 23 33 43 59 63 63 63 72 104 102 96 103 104 99 110 101 108 97 96 95 82
161 141 157 179 208 228 218 209 284 353 416 512 519 487 406 299 133 35 27 12 -13 -10 13 34 42 50 68 74 70 91 110 102 107 111 104 98 105 109 110 114 116 88 72 128
143 170 186 204 206 215 266 340 342 289 264 205 146 62 41 -1 -45 -67 -43 -15 19 30 42 77 82 61 77 87 98 128 120 110 112 84 87 93 103 106 97 105 107 101 91 74
128 148 171 192 151 132 123 121 126 106 85 68 29 -18 -27 -8 -3 23 52 58 57 65 72 86 89 92 128 131 132 151 147 125 128 117 92 80 80 82 74 72 95 101 96 94
143 71 47 39 35 62 71 65 55 34 17 8 16 36 53 65 59 58 64 64 60 68 77 94 124 117 153 166 179 172 166 160 144 130 121 100 83 74 78 67 76 92 81 80
66 72 84 92 87 81 62 44 46 42 42 49 53 57 58 58 55 66 75 83 80 83 93 125 136 148 147 194 209 180 162 161 137 113 110 103 90 88 78 73 66 90 89 80
112 104 92 91 88 84 78 69 57 75 72 69 68 75 80 87 97 106 112 118 112 118 114 118 127 129 129 147 179 159 153 157 138 124 110 98 94 91 72 57 58 65 88 112
137 115 103 93 93 80 78 80 86 92 85 76 79 82 83 88 99 119 125 134 104 126 143 129 129 132 124 120 140 153 144 124 99 92 82 85 91 86 73 64 61 58 69 84
108 111 106 92 92 107 103 100 97 89 88 86 86 88 96 99 111 119 131 129 146 168 148 148 136 123 133 144 156 145 114 90 69 72 70 68 81 81 66 66 56 54 64 73
124 122 114 117 112 103 100 102 85 84 78 78 78 90 106 120 138 153 152 150 156 139 153 158 154 132 109 122 131 145 115 85 73 81 80 73 82 67 49 47 48 63 66 64
125 129 127 115 106 111 113 98 80 70 64 63 94 111 123 131 137 140 163 136 121 131 141 144 147 141 109 110 121 171 147 101 85 85 74 69 71 82 77 68 49 36 39 64
126 122 120 117 116 106 90 81 59 75 90 100 107 110 116 125 133 129 122 115 109 105 98 96 127 162 131 150 141 149 140 122 111 87 80 72 73 79 88 82 63 52 42 27
132 131 129 134 118 98 85 74 74 81 95 102 97 112 123 122 112 106 101 101 107 115 124 113 104 107 97 101 126 150 159 137 133 115 91 79 75 78 87 81 63 68 75 83
155 150 125 111 105 94 90 81 88 108 112 114 116 125 120 113 110 115 117 107 107 112 115 118 116 115 92 89 113 124 135 131 125 112 102 86 75 74 80 88 75 71 75 84

GFSNGP_con_3kmhel_033.txt.gz
Helicity
39 62 63 52 32 13 -25 -4 -13 15 20 21 44 81 85 104 106 86 125 154 188 188 192 199 247 279 299 378 370 313 198 101 148 168 133 111 119 115 123 112 97 89 105 163
49 25 29 23 18 17 -0 -15 -11 6 -12 19 116 82 107 78 119 103 115 132 132 132 166 217 267 247 284 427 286 227 172 126 166 146 110 104 110 124 94 101 104 93 132 140
43 66 49 7 -5 2 7 12 46 46 39 63 139 84 90 105 131 106 86 112 107 112 163 238 258 243 412 294 248 228 148 185 152 113 96 81 105 100 100 117 116 101 125 146
44 30 24 48 75 82 73 41 33 56 51 60 116 143 117 119 102 106 89 86 96 149 207 258 236 433 303 328 338 164 238 163 115 96 80 92 86 93 104 115 121 112 149 152
59 38 49 26 84 68 79 89 191 165 152 142 179 83 32 75 112 98 81 83 121 173 205 278 393 300 357 317 235 282 192 157 94 60 102 94 91 93 125 129 123 114 118 148
83 60 32 106 104 77 67 68 216 166 145 102 78 91 139 151 161 73 50 87 130 160 261 304 299 374 371 462 379 330 234 92 66 97 99 86 88 95 116 125 105 126 124 136
69 76 66 142 91 74 89 221 169 107 82 81 65 169 218 166 126 73 93 122 206 296 358 344 441 564 533 566 346 141 86 79 64 60 75 81 99 111 112 101 130 152 168 136
97 88 64 116 115 146 182 111 134 94 100 96 96 142 148 131 108 124 180 325 327 304 469 685 708 712 462 171 230 181 94 60 48 59 76 96 104 92 84 95 135 167 190 166
78 105 138 82 114 121 115 105 111 109 89 91 82 83 98 163 140 186 247 303 351 600 658 616 531 317 389 230 175 102 59 43 43 57 73 82 68 88 116 114 143 146 174 158
115 118 112 110 106 118 136 134 102 97 101 110 108 117 121 255 200 210 284 508 566 508 474 444 355 386 325 178 100 62 31 32 49 58 77 91 106 88 137 150 120 147 150 138
93 72 130 109 213 169 108 89 119 128 129 141 118 130 231 282 348 506 557 544 545 509 538 501 337 246 91 71 32 25 41 55 65 80 83 91 85 105 166 133 128 133 127 132
127 182 145 133 232 129 137 162 168 168 207 225 237 349 487 559 531 469 497 534 559 543 428 200 87 62 33 25 45 52 57 72 86 96 88 95 111 117 135 117 116 123 101 136
162 160 148 148 188 180 227 245 240 263 285 317 401 437 437 448 493 512 521 403 212 79 26 17 7 10 46 43 55 67 68 77 87 90 94 126 124 120 115 108 117 124 117 115
168 146 192 249 228 242 218 197 227 236 252 272 288 319 310 303 287 197 74 -26 -55 -71 -76 -49 -11 21 36 66 79 78 74 83 83 88 131 137 109 104 113 113 110 121 117 104
202 236 267 246 222 215 204 181 191 156 117 89 80 77 79 79 38 -5 -12 -4 -4 8 24 37 43 49 88 124 100 93 106 118 136 146 139 112 115 116 106 112 106 99 99 127
219 189 187 202 190 162 127 105 112 106 100 80 74 55 57 48 29 25 31 39 44 48 58 83 84 81 100 102 107 118 121 155 198 180 165 139 137 126 113 114 112 101 97 108
175 175 160 150 125 100 116 114 101 104 105 109 85 72 70 64 42 55 63 72 82 81 84 95 102 85 109 108 110 150 170 174 210 206 195 166 154 158 123 108 110 99 86 95
160 120 115 119 113 97 110 121 113 110 121 106 86 77 78 71 64 66 78 79 82 89 84 90 115 128 125 122 135 159 185 215 189 166 168 155 144 150 136 99 93 89 75 83
135 132 121 125 128 133 122 130 135 118 103 104 99 87 73 72 74 75 75 83 82 84 105 153 177 155 154 143 159 168 191 198 165 158 154 122 116 126 128 108 93 92 77 66
129 143 144 147 147 141 149 145 97 120 117 102 82 79 74 73 72 74 83 89 78 111 176 189 160 159 147 126 129 145 156 148 148 172 140 111 103 93 83 87 92 87 88 65
148 142 136 138 148 146 138 125 124 125 106 86 84 77 65 51 49 62 73 97 88 157 161 149 151 153 160 158 152 135 135 164 176 133 108 93 86 75 66 78 94 89 85 70
135 148 142 120 126 148 142 133 119 106 100 95 78 69 61 62 86 96 108 116 160 180 158 140 136 140 134 114 139 142 119 111 155 137 103 82 78 76 76 86 99 85 72 76
148 145 149 164 146 137 127 127 98 103 91 75 63 73 69 80 98 116 123 154 151 144 131 125 123 126 95 71 106 126 102 93 138 187 142 118 94 79 84 87 89 89 92 66
153 154 148 141 133 136 139 126 98 89 79 51 79 97 106 116 132 137 157 138 131 134 121 125 149 102 82 97 111 131 125 116 148 141 136 132 115 95 82 78 79 85 100 96
136 133 140 129 134 139 125 112 86 98 98 96 108 131 148 143 140 134 135 129 120 111 99 115 125 126 123 125 131 126 101 107 130 133 147 141 119 105 91 80 72 72 87 102
126 144 150 168 158 141 123 101 93 91 98 107 110 128 130 138 138 129 118 108 104 106 107 112 115 109 109 112 113 114 112 109 121 128 129 120 113 102 94 81 72 68 73 92
173 168 148 140 143 126 111 92 88 92 99 123 111 117 139 142 126 100 101 98 100 104 113 117 115 105 89 76 74 75 83 93 91 87 87 84 87 87 81 75 72 73 77 80

GFSNGP_con_3kmhel_036.txt.gz
Helicity
48 58 38 106 72 17 18 22 36 31 22 6 47 83 77 114 95 109 49 120 129 125 242 311 423 389 303 410 421 485 484 511 318 299 273 192 181 182 157 178 149 131 127 109
83 77 83 29 58 47 29 28 13 13 31 21 56 102 127 203 168 142 126 86 173 176 186 276 305 335 362 431 502 666 466 360 284 177 386 199 172 156 133 120 123 141 148 123
61 101 102 36 17 -3 2 7 31 43 48 65 89 85 170 142 108 157 119 153 130 179 159 154 253 366 440 499 651 562 367 256 356 431 237 188 149 122 119 133 151 128 122 145
76 83 46 9 83 79 86 64 73 93 155 202 202 204 158 90 114 128 148 113 109 107 158 210 262 327 458 603 507 462 491 440 282 199 173 144 118 107 89 103 145 163 145 117
92 60 37 50 67 80 71 122 204 253 248 204 153 106 104 71 231 207 177 149 101 92 192 247 351 496 544 532 601 519 389 330 237 214 219 110 112 110 111 128 145 162 135 103
70 62 24 72 100 90 81 100 219 207 164 134 93 104 200 226 183 140 109 84 95 126 184 322 454 468 574 588 591 741 750 595 347 127 95 76 88 91 117 129 147 144 185 220
90 68 63 150 122 75 86 181 161 134 108 92 120 142 157 139 150 165 131 253 347 386 492 638 752 776 834 842 911 754 389 320 123 75 74 48 63 122 134 125 118 127 182 193
109 71 41 118 106 126 198 145 149 139 136 116 116 92 105 109 136 132 260 350 397 673 783 896 895 889 853 868 616 357 229 119 87 60 56 59 70 101 103 96 100 140 202 211
66 75 108 124 181 160 185 149 145 148 141 150 141 132 129 171 261 311 376 543 697 690 703 643 586 581 562 433 447 241 121 95 54 38 47 66 85 88 116 120 157 175 172 198
131 82 94 129 161 261 260 201 122 127 161 193 162 103 143 305 466 655 650 644 541 498 485 492 548 529 331 116 77 56 24 10 42 68 80 83 87 101 121 131 197 199 156 150
94 109 164 293 418 347 198 202 180 167 304 225 165 342 478 586 634 604 544 467 388 351 263 157 75 47 2 31 48 22 31 53 61 85 83 88 92 103 138 152 169 171 168 155
147 269 209 311 307 271 272 252 228 269 256 284 332 364 399 421 353 302 237 136 92 76 34 1 16 30 27 25 39 83 88 101 107 118 116 108 100 117 135 135 130 130 126 153
270 248 277 272 311 289 250 229 235 227 195 206 219 207 204 147 88 73 99 115 74 33 19 48 34 23 47 92 103 112 118 118 136 133 142 135 154 152 123 115 87 108 121 124
212 230 342 250 261 200 180 171 175 167 134 120 109 99 103 104 85 91 67 72 76 60 48 43 42 47 83 89 109 165 161 144 163 168 158 170 197 160 159 144 128 115 102 109
276 359 359 326 280 219 185 157 161 160 146 123 101 93 74 75 82 99 88 63 64 53 59 75 84 74 86 98 114 147 176 200 192 189 222 243 222 190 190 170 135 121 114 112
277 272 274 255 222 198 184 187 192 120 99 142 153 139 117 119 113 91 101 93 77 78 73 89 97 94 99 117 128 142 153 157 178 206 229 226 218 212 204 198 164 143 116 121
240 225 220 223 193 173 172 141 205 235 183 155 134 123 123 118 112 102 91 78 81 74 73 84 103 133 160 142 144 164 174 173 165 178 180 158 151 136 149 137 139 176 118 111
178 164 174 207 220 201 204 202 180 165 160 142 132 127 128 124 107 95 85 70 68 72 89 156 164 137 146 163 177 165 168 171 182 187 174 151 142 143 121 114 108 152 131 92
218 233 201 166 182 203 182 160 144 134 145 146 140 136 111 85 70 68 61 52 38 37 98 114 124 116 121 132 154 181 189 173 154 176 164 126 117 144 106 98 94 85 132 125
229 212 199 218 211 176 168 148 119 168 161 143 112 112 105 88 71 54 36 8 28 152 147 131 116 130 153 158 161 132 129 129 125 111 92 107 142 118 94 79 75 62 92 104
178 167 167 167 173 177 179 165 172 168 153 124 117 102 86 55 48 28 31 48 152 139 124 134 160 206 137 132 109 104 100 108 105 119 78 81 150 109 106 89 69 60 72 87
163 166 164 138 139 160 169 163 152 132 122 107 82 72 58 52 37 48 73 152 122 163 122 139 178 125 84 89 93 111 84 119 130 99 57 46 246 214 138 115 106 82 70 76
163 151 152 157 136 147 141 133 95 97 96 74 70 53 37 29 60 74 105 149 137 137 133 141 135 102 111 96 108 125 141 177 143 113 45 70 103 136 133 126 108 86 68 65
138 147 151 145 116 125 147 149 127 96 78 69 69 51 63 67 99 142 151 145 151 133 117 112 98 88 98 104 112 112 129 113 80 81 68 101 102 118 145 132 109 91 81 75
173 145 130 110 140 164 167 145 120 134 124 102 109 124 119 138 140 123 126 129 124 114 92 95 100 88 82 97 96 92 104 104 77 71 81 83 114 113 108 93 90 94 82 69
123 158 168 211 195 174 153 134 123 125 111 111 122 127 122 139 138 126 127 120 106 94 90 88 95 91 82 74 85 87 82 77 61 37 50 59 76 70 72 67 74 82 83 86
226 194 143 148 159 151 137 123 123 109 111 144 124 88 111 156 148 141 139 110 97 93 92 90 89 87 75 73 73 73 73 67 56 28 27 33 36 42 51 60 61 60 78 57

GFSNGP_con_3kmhel_042.txt.gz
Helicity
99 93 100 112 97 53 62 63 131 61 98 35 31 53 47 54 124 150 126 113 161 230 329 424 466 509 547 499 534 570 549 582 509 515 584 589 574 593 608 515 549 370 238 133
123 129 98 85 95 85 63 98 76 80 100 59 128 199 244 207 204 237 214 169 164 157 266 385 406 431 503 535 510 555 657 658 666 644 650 671 650 738 696 595 567 282 136 195
138 178 140 72 84 93 65 23 46 106 92 177 305 288 274 261 277 268 230 214 166 105 126 182 231 281 389 495 636 646 623 629 646 669 741 707 808 775 732 414 128 145 138 96
137 183 164 86 96 103 176 203 202 260 271 240 240 260 287 255 239 256 230 230 264 234 208 204 292 418 521 595 677 762 800 795 791 816 930 1051 930 342 110 109 80 61 58 70
152 137 113 86 102 129 153 175 159 221 216 127 91 205 225 171 176 182 220 263 260 239 267 340 428 524 699 761 810 836 829 860 941 1015 742 431 110 48 54 45 49 72 85 93
155 134 82 27 109 118 146 156 139 180 183 174 124 140 136 119 173 241 276 259 272 290 334 393 426 589 767 773 807 834 825 802 756 290 158 97 112 69 61 95 90 92 103 105
214 156 95 55 52 136 160 99 153 146 117 113 110 81 96 184 264 255 255 270 291 361 426 390 454 556 629 621 627 511 463 364 92 103 102 96 112 127 110 99 117 116 115 123
245 204 74 84 163 143 136 203 186 168 123 141 109 194 260 288 282 281 301 316 341 382 364 275 235 258 236 202 113 123 118 136 161 151 117 101 102 115 123 130 131 127 138 137
97 73 118 119 117 170 190 232 193 176 156 176 211 254 280 298 312 298 273 230 217 227 249 265 254 240 247 188 164 172 185 165 129 105 102 108 127 135 148 146 156 154 168 169
134 156 250 321 324 283 262 264 241 211 189 208 243 253 305 295 273 303 319 311 266 266 254 223 176 170 164 156 152 155 135 108 99 101 112 128 144 155 175 182 181 178 198 191
196 225 343 354 322 349 375 343 342 316 277 252 283 279 297 349 368 325 294 275 253 228 226 218 195 177 156 135 104 98 94 104 118 141 150 153 162 190 208 210 215 211 228 226
164 149 224 290 315 307 363 330 309 330 356 339 329 360 375 379 330 316 310 259 259 266 229 196 177 164 143 113 92 94 104 112 130 144 157 183 207 212 204 199 179 185 185 216
166 310 313 410 409 341 374 353 348 347 324 354 341 347 362 350 332 288 268 265 239 215 196 181 160 144 126 116 115 122 122 131 151 174 198 210 213 234 233 192 165 149 141 188
349 431 386 325 317 364 381 351 369 374 348 328 336 347 344 327 301 297 283 230 200 179 173 152 136 137 130 116 103 118 121 124 147 158 176 184 198 221 233 237 225 184 149 123
309 277 320 382 395 384 371 381 448 428 391 394 346 332 300 287 282 255 221 184 158 159 159 141 140 139 128 108 104 102 117 129 142 155 172 186 190 194 203 208 207 176 140 142
387 361 356 386 378 366 397 426 421 359 363 362 353 316 265 253 232 206 181 164 163 162 144 143 122 108 95 104 124 120 132 142 155 168 165 159 167 163 155 142 137 151 157 137
435 375 365 365 352 371 381 328 339 338 315 297 260 233 238 220 208 192 175 152 136 148 134 116 98 99 126 137 137 120 125 136 152 164 161 161 140 143 145 139 124 97 120 130
288 277 275 317 348 387 392 382 334 278 241 198 214 227 227 202 177 160 147 131 140 137 150 119 121 129 138 139 137 131 148 160 163 163 160 152 159 187 172 153 142 114 97 98
266 294 309 325 326 348 345 313 266 218 194 186 198 206 183 165 152 134 117 137 140 138 118 110 142 129 134 150 160 144 169 164 160 148 131 140 163 148 170 190 154 109 102 118
369 359 381 394 351 329 325 262 212 216 199 191 185 175 173 160 126 125 126 136 123 84 93 141 149 141 147 154 162 164 168 148 138 123 114 115 124 154 130 154 130 133 146 224
363 361 397 394 368 292 220 181 201 204 175 160 162 142 134 133 127 117 141 122 119 94 104 142 133 114 137 147 152 151 149 130 127 126 112 108 104 110 113 109 83 48 60 56
361 401 378 298 233 206 175 173 178 168 159 157 144 138 149 141 112 105 76 98 83 103 103 126 135 141 146 129 136 133 138 137 129 128 125 120 104 89 84 77 71 55 -4 45
276 232 199 191 192 188 174 157 141 133 132 122 120 116 120 100 94 101 86 91 95 119 126 138 142 152 153 134 125 128 125 126 115 117 106 103 92 93 87 70 57 53 52 80
181 154 164 170 172 175 169 136 144 128 134 132 129 94 92 100 92 88 98 114 129 142 147 158 165 168 155 134 129 119 119 111 102 97 81 81 82 94 95 80 60 50 41 51
147 146 151 161 176 174 159 171 193 166 153 155 151 139 116 103 97 95 134 140 158 157 159 167 176 166 139 133 126 119 105 94 89 93 65 64 73 80 83 78 70 54 40 34
186 207 229 227 217 212 212 201 202 175 153 150 145 147 149 155 160 166 176 169 160 164 172 152 152 148 133 114 123 110 96 82 75 85 66 63 72 80 85 84 80 65 52 41
292 307 317 320 282 243 232 214 195 175 150 149 140 129 150 180 186 181 173 169 154 161 167 150 140 129 120 118 120 102 86 71 69 86 74 74 87 98 90 83 80 66 57 47

GFSNGP_con_3kmhel_045.txt.gz
Helicity
71 62 93 99 95 116 126 94 120 27 72 71 59 46 49 46 126 109 85 112 117 154 168 204 304 379 402 443 428 509 515 488 532 587 534 483 490 480 347 560 591 720 632 221
147 156 136 86 86 116 117 126 102 76 85 75 94 139 219 175 221 238 232 202 130 85 131 211 291 344 345 380 459 512 519 561 577 571 532 549 622 743 796 912 645 178 165 149
120 154 140 131 57 98 116 126 112 140 93 127 216 280 280 275 256 243 221 196 176 156 134 131 196 285 356 430 480 524 566 585 640 678 751 783 780 733 676 284 147 148 162 108
138 216 54 132 175 130 147 175 182 201 212 201 268 307 334 283 191 191 163 180 185 176 170 169 193 284 368 439 532 591 644 722 780 828 808 735 670 480 198 92 134 140 120 86
192 192 163 142 125 151 170 172 194 240 275 259 241 282 281 247 214 168 162 168 178 180 191 251 291 342 489 581 628 699 731 729 675 604 559 484 329 75 98 145 122 150 109 125
204 180 117 90 106 148 155 152 114 143 142 144 196 164 101 134 154 182 198 195 201 208 220 279 294 386 538 561 604 585 541 577 667 619 286 67 80 124 136 130 138 126 144 146
265 207 183 127 85 144 199 76 185 154 143 138 120 95 130 150 180 217 227 240 246 269 263 210 220 307 339 350 370 317 326 240 101 85 113 134 136 140 137 132 140 149 161 170
293 283 164 131 204 183 110 210 194 173 176 192 180 183 178 179 205 232 251 253 256 291 307 286 280 283 293 292 206 172 126 156 139 128 122 122 127 122 120 136 156 171 191 193
194 170 162 122 105 150 131 140 135 173 156 155 157 145 185 202 242 292 322 322 311 332 347 340 322 293 301 227 192 181 150 130 119 112 112 106 117 126 155 165 191 205 226 222
235 178 161 145 179 168 184 190 181 168 174 168 236 233 253 303 354 369 354 368 334 340 349 349 309 314 276 205 149 138 134 133 125 123 120 123 141 159 180 198 215 231 243 246
263 200 189 184 208 249 283 293 343 327 271 280 332 300 354 386 403 414 410 383 343 344 341 295 250 241 196 163 136 139 133 125 117 107 107 110 125 145 174 191 219 231 245 263
203 183 192 175 214 257 322 326 323 377 375 333 348 366 397 432 413 413 402 363 360 317 285 262 243 229 200 165 134 121 107 87 76 73 80 92 103 101 112 122 127 155 171 228
160 231 276 378 390 353 385 367 360 368 362 396 395 431 446 448 423 427 383 349 300 276 256 238 219 210 183 148 107 102 91 85 83 93 99 110 124 146 155 128 118 115 124 126
335 501 422 367 331 399 424 416 424 447 428 422 425 454 464 467 447 402 338 262 232 232 226 204 182 180 141 110 101 96 90 99 94 101 116 135 154 166 180 189 185 155 108 97
322 287 349 442 469 454 434 447 507 484 451 453 403 400 405 409 363 296 231 212 203 208 210 175 158 145 115 103 92 87 80 84 102 110 127 148 160 172 170 164 164 157 130 103
362 349 373 448 442 438 468 472 501 436 414 397 404 395 364 314 271 244 227 196 200 197 165 144 133 120 95 84 81 77 85 103 116 129 142 156 163 157 157 156 132 129 150 140
489 426 418 439 416 404 400 389 411 391 384 383 362 326 289 259 240 242 224 197 183 168 139 123 111 97 84 100 99 82 95 108 136 144 162 150 150 144 145 145 132 110 128 131
307 302 303 348 380 397 412 411 405 373 359 333 309 271 231 204 203 184 172 156 153 149 127 121 106 105 118 125 129 119 112 115 139 142 145 147 136 125 124 129 121 127 97 80
281 281 281 314 340 389 397 407 382 351 330 286 269 232 195 178 163 157 157 174 161 143 131 113 114 110 130 133 119 112 130 151 154 156 153 144 135 130 128 121 107 101 105 83
282 314 363 375 363 386 407 368 346 349 275 225 209 195 193 159 145 153 151 163 133 98 99 107 113 119 124 124 136 142 157 153 162 154 147 140 138 131 126 107 89 80 88 81
294 321 351 391 423 388 342 328 320 252 183 164 176 168 166 149 129 114 110 117 109 99 106 121 119 105 112 111 126 146 159 159 149 156 145 134 128 119 107 88 83 81 88 75
283 334 354 374 380 360 290 235 217 209 201 201 178 166 174 158 151 151 120 112 108 109 106 113 114 117 121 129 144 153 151 149 135 145 135 123 118 99 84 74 77 83 89 79
272 282 281 271 246 228 207 186 188 181 171 154 146 129 129 109 100 109 114 114 104 101 107 108 118 138 144 146 153 157 152 149 144 134 120 106 98 83 75 72 76 84 86 80
258 236 228 211 226 207 187 153 157 159 176 171 149 124 125 139 152 144 137 121 109 106 111 116 135 149 160 156 156 160 151 150 131 118 107 86 81 80 81 82 83 89 89 86
195 194 184 165 164 169 175 174 202 191 188 177 157 135 124 125 122 120 142 121 122 125 124 142 166 179 167 161 152 157 156 139 117 106 100 82 77 81 86 93 98 100 94 85
165 171 188 193 203 209 215 213 216 206 196 188 169 148 179 193 191 167 150 143 136 132 133 146 161 170 165 152 144 154 149 135 119 105 101 85 83 82 86 92 99 100 92 79
251 251 260 307 309 300 294 267 234 223 206 190 181 148 161 185 172 163 169 168 150 146 142 156 161 168 163 146 143 139 136 124 111 108 103 90 82 82 86 93 97 97 94 87

GFSNGP_con_3kmhel_048.txt.gz
Helicity
107 76 95 75 83 156 159 116 119 52 103 46 45 62 52 43 84 92 81 63 40 28 78 113 147 161 202 252 293 313 343 364 397 365 328 384 425 450 522 455 415 465 632 288
118 139 125 90 83 79 76 102 103 106 78 67 84 99 127 146 165 204 207 215 206 165 129 109 113 152 189 217 243 275 312 333 343 375 444 484 572 635 613 611 517 458 183 185
110 182 184 101 82 119 123 158 158 160 117 143 145 177 202 232 245 240 232 236 237 209 169 149 146 191 231 267 301 341 392 444 491 547 566 590 534 594 471 484 279 164 156 164
137 213 67 118 177 151 155 156 174 181 168 222 262 293 343 369 315 290 248 212 177 158 175 200 218 262 298 329 370 429 462 490 499 532 565 596 564 509 350 233 105 117 126 115
174 169 149 142 152 171 135 89 126 146 224 295 316 333 354 296 241 188 147 121 132 182 219 259 283 281 349 375 389 397 390 427 463 476 434 429 462 315 99 124 130 120 121 117
188 170 131 68 118 186 203 147 149 180 182 213 194 196 139 141 135 144 153 175 201 228 249 265 227 235 295 295 335 357 344 328 310 298 325 133 104 112 137 130 120 121 117 125
271 198 162 107 156 224 239 117 183 205 152 152 134 133 146 142 170 160 174 205 232 270 275 238 218 254 286 271 265 234 236 228 208 167 127 132 143 124 114 104 110 116 135 147
307 263 151 194 316 305 154 98 189 220 197 220 188 191 192 187 184 191 236 252 271 318 326 285 258 289 278 273 215 225 217 201 169 146 142 123 107 100 101 107 121 134 156 162
193 162 171 151 175 142 133 111 150 235 181 223 237 210 209 219 238 246 261 294 309 338 378 382 339 292 284 228 207 210 211 191 160 136 119 112 101 96 104 122 136 144 158 172
238 184 191 201 143 126 118 123 156 172 199 213 252 240 263 273 262 277 303 335 342 388 391 371 330 309 281 229 189 192 186 160 127 116 109 100 96 101 116 134 147 151 164 180
212 207 242 152 121 137 195 217 272 280 234 245 300 276 284 299 317 336 368 388 383 378 367 343 322 322 278 236 190 176 146 126 117 98 87 79 76 80 98 113 136 162 174 188
192 255 326 138 167 181 248 257 271 348 333 309 299 312 353 382 372 390 417 413 419 393 369 324 294 273 239 196 152 133 123 104 83 68 61 63 63 70 75 85 109 113 113 145
235 239 254 243 328 292 333 319 329 344 319 372 352 412 431 447 425 444 436 425 399 358 305 258 243 236 199 156 124 117 98 91 77 73 64 54 60 64 74 79 100 128 127 112
256 428 335 254 240 330 394 405 415 432 414 408 457 478 491 486 465 441 413 370 318 269 248 223 215 206 148 118 107 103 97 99 76 64 62 73 76 73 91 103 114 124 131 134
237 243 229 364 422 452 426 432 484 479 468 498 468 469 444 447 438 404 358 308 286 264 224 199 182 159 119 114 114 103 86 70 66 63 69 77 94 115 117 132 143 151 123 95
281 282 313 422 468 448 460 464 518 470 459 440 447 436 435 440 422 385 317 240 223 214 189 159 145 131 118 111 99 85 80 90 94 84 83 93 111 119 134 140 152 130 108 100
393 340 361 379 424 447 432 397 386 392 423 428 424 420 421 434 406 356 291 231 193 165 144 132 124 107 104 104 89 88 87 96 102 93 104 120 127 129 142 149 134 128 110 86
183 252 289 372 422 442 424 430 460 465 460 431 413 399 404 367 329 275 214 173 154 139 134 118 104 102 106 108 106 104 103 107 99 102 116 133 141 147 140 139 131 118 110 71
189 266 313 341 354 408 434 456 439 427 416 394 403 403 371 352 258 186 151 147 130 118 113 100 104 102 110 116 117 113 106 115 108 126 140 146 148 148 145 137 117 110 87 67
291 288 298 335 349 379 420 397 424 439 388 407 427 430 315 216 182 160 143 157 134 104 102 105 100 104 111 121 123 112 113 115 126 139 140 147 159 157 131 119 108 98 74 64
263 254 281 328 357 367 374 367 364 354 359 382 290 223 199 158 138 131 131 129 113 102 95 90 93 96 109 109 114 117 124 124 129 140 149 159 158 142 125 120 113 91 74 69
180 214 266 313 374 403 366 341 339 337 267 236 217 183 173 156 150 157 140 120 101 85 90 94 98 110 121 124 126 118 125 138 139 140 168 160 148 129 117 114 107 90 82 79
215 266 314 334 341 338 309 258 234 218 208 165 151 147 146 137 127 134 122 112 116 106 107 102 109 132 139 137 129 129 138 143 137 141 151 144 129 115 108 105 98 94 94 91
262 273 285 276 270 243 218 189 206 186 179 170 167 159 165 175 176 150 152 147 140 129 115 108 130 139 144 136 132 131 131 136 140 132 132 126 120 111 109 105 94 93 96 90
216 204 189 191 196 184 190 182 202 194 207 215 194 162 153 151 140 131 150 147 149 143 125 128 139 156 150 136 128 122 131 148 146 138 132 123 109 99 102 93 91 94 94 92
207 225 228 198 174 170 166 185 225 225 214 205 193 181 178 175 172 166 173 175 167 145 122 132 151 157 143 129 121 128 139 150 151 135 130 112 97 91 88 83 88 93 94 93
229 207 203 236 247 248 246 237 223 220 207 191 193 173 175 182 182 186 184 171 152 131 121 130 139 134 138 135 138 133 137 143 135 131 125 105 89 85 82 83 89 95 91 92